,,PA_Meas_PMT16A,,PR_Meas_QMR101_102,,RH_Meas_QMH101,,SR_Meas_QMS101,,TA_Meas_QMH101,,GenWind,,GenWind,
time,status,PA,status,PR,status,RH,status,SR,status,TA,status,DirAvg,status,SpdAvg,
2014-03-15, 17:16:04,VALID,915.971,VALID,0,VALID,65.3098,VALID,53.9355,VALID,25.2398,VALID,115,VALID,0.444141,
2014-03-15, 17:17:04,VALID,915.963,VALID,0,VALID,66.1941,VALID,58.6629,VALID,25.2183,VALID,115,VALID,0.949219,
2014-03-15, 17:18:04,VALID,915.965,VALID,0,VALID,64.6542,VALID,63.4977,VALID,25.2398,VALID,115,VALID,1.21797,
2014-03-15, 17:19:04,VALID,915.98,VALID,0,VALID,65.6147,VALID,66.0763,VALID,25.2379,VALID,115,VALID,0.969531,
2014-03-15, 17:20:04,VALID,915.989,VALID,0,VALID,66.5677,VALID,65.8614,VALID,25.2379,VALID,115,VALID,0.940234,
2014-03-15, 17:21:04,VALID,915.961,VALID,0,VALID,64.1892,VALID,64.2498,VALID,25.2788,VALID,115,VALID,0.749219,
2014-03-15, 17:22:04,VALID,915.976,VALID,0,VALID,65.7062,VALID,62.9605,VALID,25.3374,VALID,115,VALID,0.737891,
2014-03-15, 17:23:04,VALID,915.978,VALID,0,VALID,63.991,VALID,61.8861,VALID,25.3355,VALID,40,VALID,1.11172,
2014-03-15, 17:24:04,VALID,915.989,VALID,0,VALID,64.3721,VALID,60.167,VALID,25.3765,VALID,47,VALID,0.262891,
2014-03-15, 17:25:04,VALID,915.994,VALID,0,VALID,64.3874,VALID,57.9108,VALID,25.4156,VALID,47,VALID,0.220313,
2014-03-15, 17:26:04,VALID,915.993,VALID,0,VALID,65.6452,VALID,56.4066,VALID,25.4351,VALID,47,VALID,0,
2014-03-15, 17:27:04,VALID,916.03,VALID,0,VALID,64.5398,VALID,56.1917,VALID,25.4741,VALID,47,VALID,0,
2014-03-15, 17:28:04,VALID,916.063,VALID,0,VALID,63.7318,VALID,56.9438,VALID,25.5132,VALID,47,VALID,0,
2014-03-15, 17:29:04,VALID,916.039,VALID,0,VALID,65.0277,VALID,57.5885,VALID,25.5327,VALID,47,VALID,0.491016,
2014-03-15, 17:30:04,VALID,916.071,VALID,0,VALID,63.8842,VALID,57.2661,VALID,25.4741,VALID,47,VALID,0.873047,
2014-03-15, 17:31:04,VALID,916.103,VALID,0,VALID,64.1358,VALID,55.8694,VALID,25.4351,VALID,47,VALID,0.78125,
2014-03-15, 17:32:04,VALID,916.127,VALID,0,VALID,63.6479,VALID,54.3652,VALID,25.3765,VALID,47,VALID,0.844141,
2014-03-15, 17:33:04,VALID,916.122,VALID,0,VALID,64.395,VALID,54.0429,VALID,25.4156,VALID,47,VALID,0.425781,
2014-03-15, 17:39:04,VALID,916.167,VALID,0,VALID,64.6237,VALID,53.2908,VALID,25.3394,VALID,47,VALID,0.824609,
2014-03-15, 17:40:04,VALID,916.185,VALID,0,VALID,63.9528,VALID,53.828,VALID,25.2808,VALID,47,VALID,1.06328,
2014-03-15, 17:41:04,VALID,916.183,VALID,0,VALID,65.3632,VALID,54.0429,VALID,25.2417,VALID,47,VALID,1.00937,
2014-03-15, 17:42:04,VALID,916.193,VALID,0,VALID,66.3313,VALID,54.5801,VALID,25.1831,VALID,47,VALID,1.00859,
2014-03-15, 17:43:04,VALID,916.189,VALID,0,VALID,66.865,VALID,55.762,VALID,25.064,VALID,47,VALID,1.05195,
2014-03-15, 17:44:04,VALID,916.187,VALID,0,VALID,67.9323,VALID,56.1917,VALID,25.0464,VALID,47,VALID,1.13008,
2014-03-15, 17:45:04,VALID,916.204,VALID,0,VALID,67.2538,VALID,56.1917,VALID,24.9859,VALID,47,VALID,1.01523,
2014-03-15, 17:46:04,VALID,916.209,VALID,0,VALID,68.4735,VALID,55.5471,VALID,24.9683,VALID,47,VALID,0.773438,
2014-03-15, 17:47:04,VALID,916.189,VALID,0,VALID,68.0847,VALID,54.2578,VALID,24.9292,VALID,47,VALID,0.721484,
2014-03-15, 17:48:04,VALID,916.216,VALID,0,VALID,68.4888,VALID,52.5387,VALID,24.8902,VALID,47,VALID,0.842578,
2014-03-15, 17:49:04,VALID,916.219,VALID,0,VALID,69.8229,VALID,50.3899,VALID,24.8511,VALID,47,VALID,0.859766,
2014-03-15, 17:54:04,VALID,916.326,VALID,0,VALID,67.7417,VALID,29.0091,VALID,24.7926,VALID,105,VALID,0.873828,
2014-03-15, 17:55:04,VALID,916.317,VALID,0,VALID,68.3439,VALID,27.1826,VALID,24.7535,VALID,104,VALID,1.33555,
2014-03-15, 17:56:04,VALID,916.313,VALID,0,VALID,68.5879,VALID,26.538,VALID,24.6754,VALID,96,VALID,1.4832,
2014-03-15, 17:57:04,VALID,916.309,VALID,0,VALID,67.4062,VALID,26.538,VALID,24.6559,VALID,124,VALID,1.24727,
2014-03-15, 17:58:04,VALID,916.319,VALID,0,VALID,68.1533,VALID,25.6784,VALID,24.6168,VALID,83,VALID,1.46641,
2014-03-15, 17:59:04,VALID,916.335,VALID,0,VALID,67.1166,VALID,25.0338,VALID,24.5954,VALID,78,VALID,1.88594,
2014-03-15, 18:00:04,VALID,916.307,VALID,0,VALID,67.1166,VALID,25.1412,VALID,24.6187,VALID,78,VALID,1.10547,
2014-03-15, 18:01:04,VALID,916.291,VALID,0,VALID,65.0277,VALID,24.604,VALID,24.5973,VALID,123,VALID,1.95781,
2014-03-15, 18:02:04,VALID,916.277,VALID,0,VALID,65.386,VALID,23.7445,VALID,24.6949,VALID,120,VALID,1.63984,
2014-03-15, 18:03:04,VALID,916.286,VALID,0,VALID,64.8676,VALID,23.3147,VALID,24.6559,VALID,50,VALID,1.98984,
2014-03-15, 18:04:04,VALID,916.298,VALID,0,VALID,63.8918,VALID,23.3147,VALID,24.7358,VALID,97,VALID,1.69023,
2014-03-15, 18:05:04,VALID,916.292,VALID,0,VALID,64.7914,VALID,23.3147,VALID,24.7554,VALID,53,VALID,1.56641,
2014-03-15, 18:06:04,VALID,916.284,VALID,0,VALID,64.9134,VALID,23.7445,VALID,24.7358,VALID,55,VALID,0.602344,
2014-03-15, 18:07:04,VALID,916.32,VALID,0,VALID,64.7838,VALID,23.7445,VALID,24.7144,VALID,55,VALID,0.521875,
2014-03-15, 18:08:04,VALID,916.316,VALID,0,VALID,66.3161,VALID,22.7775,VALID,24.7358,VALID,57,VALID,0.763281,
2014-03-15, 18:09:04,VALID,916.337,VALID,0,VALID,63.9147,VALID,21.3808,VALID,24.6559,VALID,82,VALID,1.26953,
2014-03-15, 18:10:04,VALID,916.323,VALID,0,VALID,63.5945,VALID,20.0915,VALID,24.6345,VALID,86,VALID,2.25781,
2014-03-15, 18:11:04,VALID,916.367,VALID,0,VALID,63.3353,VALID,18.9096,VALID,24.6363,VALID,112,VALID,2.33984,
2014-03-15, 18:12:04,VALID,916.387,VALID,0,VALID,62.8856,VALID,17.7278,VALID,24.5973,VALID,96,VALID,2.30938,
2014-03-15, 18:13:04,VALID,916.396,VALID,0,VALID,62.5882,VALID,16.4385,VALID,24.5973,VALID,96,VALID,2.61523,
2014-03-15, 18:14:04,VALID,916.379,VALID,0,VALID,62.9389,VALID,15.2566,VALID,24.6168,VALID,66,VALID,1.75352,
2014-03-15, 18:15:04,VALID,916.431,VALID,0,VALID,63.1219,VALID,14.2897,VALID,24.5973,VALID,59,VALID,1.12031,
2014-03-15, 18:16:04,VALID,916.443,VALID,0,VALID,63.686,VALID,13.2153,VALID,24.5582,VALID,101,VALID,2.2543,
2014-03-15, 18:17:04,VALID,916.442,VALID,0,VALID,64.0596,VALID,11.926,VALID,24.4783,VALID,88,VALID,1.77422,
2014-03-15, 18:18:04,VALID,916.448,VALID,0,VALID,63.93,VALID,10.4218,VALID,24.4606,VALID,91,VALID,1.81016,
2014-03-15, 18:19:04,VALID,916.481,VALID,0,VALID,64.1587,VALID,9.02506,VALID,24.4411,VALID,90,VALID,1.16211,
2014-03-15, 18:20:04,VALID,916.467,VALID,0,VALID,64.6999,VALID,7.95065,VALID,24.402,VALID,92,VALID,1.89297,
2014-03-15, 18:21:04,VALID,916.495,VALID,0,VALID,65.5842,VALID,6.98368,VALID,24.3221,VALID,99,VALID,1.35859,
2014-03-15, 18:22:04,VALID,916.484,VALID,0,VALID,66.0798,VALID,6.12415,VALID,24.2654,VALID,92,VALID,1.8332,
2014-03-15, 18:23:04,VALID,916.521,VALID,0,VALID,64.2578,VALID,5.4795,VALID,24.2263,VALID,94,VALID,3.01367,
2014-03-15, 18:24:04,VALID,916.554,VALID,0,VALID,64.9286,VALID,4.94229,VALID,24.2458,VALID,82,VALID,2.62266,
2014-03-15, 18:25:04,VALID,916.559,VALID,0,VALID,64.7609,VALID,4.51253,VALID,24.2672,VALID,113,VALID,3.51523,
2014-03-15, 18:26:04,VALID,916.588,VALID,0,VALID,65.0964,VALID,3.97532,VALID,24.2068,VALID,111,VALID,1.89648,
2014-03-15, 18:27:04,VALID,916.584,VALID,0,VALID,65.8816,VALID,3.54556,VALID,24.1482,VALID,114,VALID,2.3125,
2014-03-15, 18:28:04,VALID,916.62,VALID,0,VALID,65.7367,VALID,3.00835,VALID,24.0701,VALID,115,VALID,3.00664,
2014-03-15, 18:29:04,VALID,916.667,VALID,0,VALID,66.4,VALID,2.57859,VALID,24.0701,VALID,72,VALID,2.11562,
2014-03-15, 18:30:04,VALID,916.628,VALID,0,VALID,64.5322,VALID,2.14882,VALID,24.0311,VALID,95,VALID,2.89766,
2014-03-15, 18:31:04,VALID,916.657,VALID,0,VALID,65.9349,VALID,1.71906,VALID,23.9725,VALID,80,VALID,2.8582,
2014-03-15, 18:32:04,VALID,916.654,VALID,0,VALID,64.578,VALID,1.39673,VALID,23.9335,VALID,73,VALID,2.24883,
2014-03-15, 18:33:04,VALID,916.678,VALID,0,VALID,64.578,VALID,1.07441,VALID,23.9139,VALID,58,VALID,2.36523,
2014-03-15, 18:34:04,VALID,916.697,VALID,0,VALID,63.8004,VALID,0.859529,VALID,23.8749,VALID,101,VALID,1.98164,
2014-03-15, 18:35:04,VALID,916.687,VALID,0,VALID,64.334,VALID,0.752088,VALID,23.9139,VALID,63,VALID,2.46563,
2014-03-15, 18:36:04,VALID,916.641,VALID,0,VALID,64.2578,VALID,0.537206,VALID,23.9335,VALID,59,VALID,2.49062,
2014-03-15, 18:37:04,VALID,916.7,VALID,0,VALID,64.3569,VALID,0.429765,VALID,23.9139,VALID,83,VALID,1.86953,
2014-03-15, 18:38:04,VALID,916.672,VALID,0,VALID,66.034,VALID,0.429765,VALID,23.9743,VALID,68,VALID,2.48906,
2014-03-15, 18:39:04,VALID,916.7,VALID,0,VALID,66.1865,VALID,0.322323,VALID,23.9335,VALID,111,VALID,1.62383,
2014-03-15, 18:40:04,VALID,916.685,VALID,0,VALID,66.8192,VALID,0.214882,VALID,23.8749,VALID,92,VALID,2.08203,
2014-03-15, 18:41:04,VALID,916.685,VALID,0,VALID,67.0632,VALID,0.214882,VALID,23.8358,VALID,92,VALID,1.70117,
2014-03-15, 18:42:04,VALID,916.703,VALID,0,VALID,67.8027,VALID,0.107441,VALID,23.7773,VALID,123,VALID,1.76875,
2014-03-15, 18:43:04,VALID,916.774,VALID,0,VALID,68.9233,VALID,0.107441,VALID,23.7382,VALID,142,VALID,1.74727,
2014-03-15, 18:44:04,VALID,916.756,VALID,0,VALID,70.0744,VALID,0.107441,VALID,23.6815,VALID,117,VALID,2.21992,
2014-03-15, 18:45:04,VALID,916.784,VALID,0,VALID,70.6996,VALID,0,VALID,23.6034,VALID,118,VALID,2.23242,
2014-03-15, 18:46:04,VALID,916.806,VALID,0,VALID,70.5471,VALID,0,VALID,23.5448,VALID,152,VALID,2.28594,
2014-03-15, 18:47:04,VALID,916.844,VALID,0,VALID,70.7605,VALID,0,VALID,23.5448,VALID,113,VALID,1.30313,
2014-03-15, 18:48:04,VALID,916.882,VALID,0,VALID,70.7453,VALID,0,VALID,23.5253,VALID,129,VALID,1.86602,
2014-03-15, 18:49:04,VALID,916.904,VALID,0,VALID,70.9893,VALID,0,VALID,23.5058,VALID,118,VALID,1.79453,
2014-03-15, 18:50:04,VALID,916.913,VALID,0,VALID,70.852,VALID,0,VALID,23.4667,VALID,129,VALID,2.5332,
2014-03-15, 18:51:04,VALID,916.956,VALID,0,VALID,71.3094,VALID,0,VALID,23.4277,VALID,134,VALID,1.48398,
2014-03-15, 18:52:04,VALID,916.995,VALID,0,VALID,71.4924,VALID,0,VALID,23.4277,VALID,111,VALID,1.10586,
2014-03-15, 18:53:04,VALID,916.987,VALID,0,VALID,71.5381,VALID,0,VALID,23.3887,VALID,109,VALID,1.28398,
2014-03-15, 18:54:04,VALID,917.047,VALID,0,VALID,72.552,VALID,0,VALID,23.3674,VALID,100,VALID,1.2332,
2014-03-15, 18:55:04,VALID,917.052,VALID,0,VALID,72.2776,VALID,0,VALID,23.3088,VALID,78,VALID,0.946484,
2014-03-15, 18:56:04,VALID,917.081,VALID,0,VALID,72.6664,VALID,0,VALID,23.2715,VALID,111,VALID,1.1168,
2014-03-15, 18:57:04,VALID,917.081,VALID,0,VALID,73.1467,VALID,0,VALID,23.2112,VALID,119,VALID,1.65586,
2014-03-15, 18:58:04,VALID,917.058,VALID,0,VALID,73.3678,VALID,0,VALID,23.1722,VALID,102,VALID,1.19414,
2014-03-15, 18:59:04,VALID,917.073,VALID,0,VALID,73.5736,VALID,0,VALID,23.1331,VALID,112,VALID,1.36797,
2014-03-15, 19:00:04,VALID,917.058,VALID,0,VALID,74.0005,VALID,0,VALID,23.1331,VALID,123,VALID,1.55313,
2014-03-15, 19:01:04,VALID,917.027,VALID,0,VALID,74.031,VALID,0,VALID,23.1154,VALID,120,VALID,2.47695,
2014-03-15, 19:02:04,VALID,917.026,VALID,0,VALID,74.2292,VALID,0,VALID,23.0746,VALID,120,VALID,1.13398,
2014-03-15, 19:03:04,VALID,917.045,VALID,0,VALID,74.3969,VALID,0,VALID,23.0746,VALID,119,VALID,1.18438,
2014-03-15, 19:04:04,VALID,917.038,VALID,0,VALID,74.5189,VALID,0,VALID,23.0551,VALID,124,VALID,1.90352,
2014-03-15, 19:05:04,VALID,917.101,VALID,0,VALID,75.022,VALID,0,VALID,23.0373,VALID,107,VALID,1.10859,
2014-03-15, 19:06:04,VALID,917.099,VALID,0,VALID,75.1898,VALID,0,VALID,22.9983,VALID,112,VALID,1.99141,
2014-03-15, 19:07:04,VALID,917.1,VALID,0,VALID,75.3346,VALID,0,VALID,22.9787,VALID,126,VALID,1.88008,
2014-03-15, 19:08:04,VALID,917.11,VALID,0,VALID,75.5404,VALID,0,VALID,22.9397,VALID,125,VALID,1.78945,
2014-03-15, 19:09:04,VALID,917.172,VALID,0,VALID,75.548,VALID,0,VALID,22.9202,VALID,116,VALID,2.01016,
2014-03-15, 19:10:04,VALID,917.173,VALID,0,VALID,75.7844,VALID,0,VALID,22.9202,VALID,113,VALID,2.08047,
2014-03-15, 19:11:04,VALID,917.191,VALID,0,VALID,76.1274,VALID,0,VALID,22.8599,VALID,125,VALID,2.40391,
2014-03-15, 19:12:04,VALID,917.206,VALID,0,VALID,76.257,VALID,0,VALID,22.8404,VALID,130,VALID,2.18242,
2014-03-15, 19:13:04,VALID,917.233,VALID,0,VALID,76.4476,VALID,0,VALID,22.8421,VALID,106,VALID,2.15859,
2014-03-15, 19:14:04,VALID,917.264,VALID,0,VALID,76.2951,VALID,0,VALID,22.8226,VALID,122,VALID,2.71836,
2014-03-15, 19:15:04,VALID,917.278,VALID,0,VALID,76.3942,VALID,0,VALID,22.8209,VALID,129,VALID,1.57578,
2014-03-15, 19:16:04,VALID,917.304,VALID,0,VALID,76.3028,VALID,0,VALID,22.8421,VALID,132,VALID,1.14688,
2014-03-15, 19:17:04,VALID,917.324,VALID,0,VALID,76.3104,VALID,0,VALID,22.8209,VALID,132,VALID,1.99688,
2014-03-15, 19:18:04,VALID,917.38,VALID,0,VALID,76.3638,VALID,0,VALID,22.8421,VALID,147,VALID,1.89844,
2014-03-15, 19:19:04,VALID,917.394,VALID,0,VALID,76.6153,VALID,0,VALID,22.8226,VALID,137,VALID,1.2582,
2014-03-15, 19:20:04,VALID,917.466,VALID,0,VALID,76.5848,VALID,0,VALID,22.8031,VALID,131,VALID,1.50742,
2014-03-15, 19:21:04,VALID,917.467,VALID,0,VALID,77.1337,VALID,0,VALID,22.7641,VALID,120,VALID,1.35078,
2014-03-15, 19:22:04,VALID,917.516,VALID,0,VALID,77.5835,VALID,0,VALID,22.6665,VALID,120,VALID,1.625,
2014-03-15, 19:23:04,VALID,917.506,VALID,0,VALID,77.9342,VALID,0,VALID,22.6274,VALID,136,VALID,1.26289,
2014-03-15, 19:24:04,VALID,917.543,VALID,0,VALID,78.2925,VALID,0,VALID,22.5494,VALID,135,VALID,1.46289,
2014-03-15, 19:25:04,VALID,917.533,VALID,0,VALID,78.4907,VALID,0,VALID,22.4891,VALID,137,VALID,1.75977,
2014-03-15, 19:26:04,VALID,917.575,VALID,0,VALID,78.7194,VALID,0,VALID,22.4908,VALID,132,VALID,0.800391,
2014-03-15, 19:27:04,VALID,917.547,VALID,0,VALID,79.0091,VALID,0,VALID,22.4713,VALID,120,VALID,1.47461,
2014-03-15, 19:28:04,VALID,917.568,VALID,0,VALID,78.971,VALID,0,VALID,22.4323,VALID,139,VALID,1.44219,
2014-03-15, 19:29:04,VALID,917.621,VALID,0,VALID,79.314,VALID,0,VALID,22.4128,VALID,125,VALID,1.1168,
2014-03-15, 19:30:04,VALID,917.626,VALID,0,VALID,79.8705,VALID,0,VALID,22.3737,VALID,129,VALID,0.898828,
2014-03-15, 19:31:04,VALID,917.646,VALID,0,VALID,80.1221,VALID,0,VALID,22.3152,VALID,117,VALID,1.19141,
2014-03-15, 19:32:04,VALID,917.657,VALID,0,VALID,80.2212,VALID,0,VALID,22.2567,VALID,127,VALID,1.53437,
2014-03-15, 19:33:04,VALID,917.66,VALID,0,VALID,80.1374,VALID,0,VALID,22.2779,VALID,137,VALID,0.985156,
2014-03-15, 19:34:04,VALID,917.69,VALID,0,VALID,80.3965,VALID,0,VALID,22.2371,VALID,132,VALID,1.12305,
2014-03-15, 19:35:04,VALID,917.701,VALID,0,VALID,80.5414,VALID,0,VALID,22.2388,VALID,125,VALID,1.16758,
2014-03-15, 19:36:04,VALID,917.696,VALID,0,VALID,80.7701,VALID,0,VALID,22.1786,VALID,132,VALID,1.95039,
2014-03-15, 19:37:04,VALID,917.68,VALID,0,VALID,80.9378,VALID,0,VALID,22.1786,VALID,138,VALID,1.71406,
2014-03-15, 19:38:04,VALID,917.681,VALID,0,VALID,80.8997,VALID,0,VALID,22.1981,VALID,137,VALID,1.77461,
2014-03-15, 19:39:04,VALID,917.672,VALID,0,VALID,80.9607,VALID,0,VALID,22.1574,VALID,129,VALID,1.68672,
2014-03-15, 19:40:04,VALID,917.645,VALID,0,VALID,80.854,VALID,0,VALID,22.1769,VALID,145,VALID,2.09609,
2014-03-15, 19:41:04,VALID,917.672,VALID,0,VALID,80.7777,VALID,0,VALID,22.2176,VALID,141,VALID,1.325,
2014-03-15, 19:42:04,VALID,917.654,VALID,0,VALID,80.8082,VALID,0,VALID,22.2159,VALID,94,VALID,1.26133,
2014-03-15, 19:43:04,VALID,917.638,VALID,0,VALID,80.5338,VALID,0,VALID,22.2371,VALID,128,VALID,1.38008,
2014-03-15, 19:44:04,VALID,917.664,VALID,0,VALID,80.5185,VALID,0,VALID,22.2388,VALID,155,VALID,1.1875,
2014-03-15, 19:45:04,VALID,917.663,VALID,0,VALID,80.3051,VALID,0,VALID,22.2567,VALID,129,VALID,1.72695,
2014-03-15, 19:46:04,VALID,917.644,VALID,0,VALID,80.0459,VALID,0,VALID,22.2567,VALID,136,VALID,2.00547,
2014-03-15, 19:47:04,VALID,917.643,VALID,0,VALID,79.7562,VALID,0,VALID,22.2762,VALID,125,VALID,1.76602,
2014-03-15, 19:48:04,VALID,917.64,VALID,0,VALID,79.8858,VALID,0,VALID,22.2762,VALID,138,VALID,1.84336,
2014-03-15, 19:49:04,VALID,917.616,VALID,0,VALID,79.9239,VALID,0,VALID,22.2762,VALID,136,VALID,1.8375,
2014-03-15, 19:50:04,VALID,917.631,VALID,0,VALID,79.5122,VALID,0,VALID,22.2762,VALID,128,VALID,1.89883,
2014-03-15, 19:51:04,VALID,917.608,VALID,0,VALID,79.253,VALID,0,VALID,22.2957,VALID,131,VALID,2.21172,
2014-03-15, 19:52:04,VALID,917.608,VALID,0,VALID,79.192,VALID,0,VALID,22.3152,VALID,140,VALID,1.61328,
2014-03-15, 19:53:04,VALID,917.632,VALID,0,VALID,79.1539,VALID,0.107441,VALID,22.3347,VALID,136,VALID,2.07656,
2014-03-15, 19:54:04,VALID,917.633,VALID,0,VALID,79.4055,VALID,0,VALID,22.3152,VALID,134,VALID,2.04258,
2014-03-15, 19:55:04,VALID,917.661,VALID,0,VALID,79.497,VALID,0,VALID,22.2957,VALID,134,VALID,2.69258,
2014-03-15, 19:56:04,VALID,917.675,VALID,0,VALID,79.7181,VALID,0,VALID,22.2354,VALID,128,VALID,2.05469,
2014-03-15, 19:57:04,VALID,917.629,VALID,0,VALID,79.9086,VALID,0,VALID,22.2176,VALID,122,VALID,1.62109,
2014-03-15, 19:58:04,VALID,917.645,VALID,0,VALID,80.1221,VALID,0,VALID,22.1981,VALID,135,VALID,2.22539,
2014-03-15, 19:59:04,VALID,917.644,VALID,0,VALID,80.2669,VALID,0.107441,VALID,22.1786,VALID,131,VALID,1.9918,
2014-03-15, 20:00:04,VALID,917.702,VALID,0,VALID,80.427,VALID,0.107441,VALID,22.1591,VALID,127,VALID,1.45664,
2014-03-15, 20:01:04,VALID,917.695,VALID,0,VALID,80.427,VALID,0,VALID,22.1201,VALID,122,VALID,1.52578,
2014-03-15, 20:02:04,VALID,917.726,VALID,0,VALID,80.6329,VALID,0,VALID,22.1005,VALID,118,VALID,1.27656,
2014-03-15, 20:03:04,VALID,917.745,VALID,0,VALID,80.4957,VALID,0,VALID,22.0827,VALID,127,VALID,1.29375,
2014-03-15, 20:04:04,VALID,917.743,VALID,0,VALID,80.1831,VALID,0,VALID,22.1022,VALID,133,VALID,1.4793,
2014-03-15, 20:05:04,VALID,917.752,VALID,0,VALID,80.1221,VALID,0.107441,VALID,22.1005,VALID,141,VALID,1.38359,
2014-03-15, 20:06:04,VALID,917.747,VALID,0,VALID,80.1297,VALID,0,VALID,22.1005,VALID,131,VALID,1.48633,
2014-03-15, 20:07:04,VALID,917.787,VALID,0,VALID,80.2136,VALID,0,VALID,22.1005,VALID,108,VALID,0.923828,
2014-03-15, 20:08:04,VALID,917.791,VALID,0,VALID,80.2365,VALID,0,VALID,22.081,VALID,101,VALID,1.51289,
2014-03-15, 20:09:04,VALID,917.802,VALID,0,VALID,80.6939,VALID,0,VALID,22.0615,VALID,76,VALID,1.06367,
2014-03-15, 20:10:04,VALID,917.806,VALID,0,VALID,81.0217,VALID,0,VALID,22.0242,VALID,84,VALID,1.67305,
2014-03-15, 20:11:04,VALID,917.812,VALID,0,VALID,80.9759,VALID,0,VALID,21.964,VALID,95,VALID,1.32852,
2014-03-15, 20:12:04,VALID,917.835,VALID,0,VALID,81.3952,VALID,0,VALID,21.9249,VALID,79,VALID,1.12031,
2014-03-15, 20:13:04,VALID,917.85,VALID,0,VALID,81.2275,VALID,0,VALID,21.9054,VALID,117,VALID,1.8043,
2014-03-15, 20:14:04,VALID,917.83,VALID,0,VALID,81.3647,VALID,0,VALID,21.8664,VALID,126,VALID,1.58867,
2014-03-15, 20:15:04,VALID,917.837,VALID,0,VALID,81.38,VALID,0,VALID,21.8681,VALID,141,VALID,1.29023,
2014-03-15, 20:16:04,VALID,917.83,VALID,0,VALID,81.2046,VALID,0,VALID,21.8681,VALID,138,VALID,1.83867,
2014-03-15, 20:17:04,VALID,917.854,VALID,0,VALID,80.8235,VALID,0,VALID,21.8469,VALID,134,VALID,1.96055,
2014-03-15, 20:18:04,VALID,917.813,VALID,0,VALID,80.9683,VALID,0,VALID,21.8859,VALID,136,VALID,1.4543,
2014-03-15, 20:19:04,VALID,917.836,VALID,0,VALID,80.9378,VALID,0,VALID,21.8859,VALID,143,VALID,1.44883,
2014-03-15, 20:20:04,VALID,917.807,VALID,0,VALID,81.0674,VALID,0,VALID,21.9054,VALID,147,VALID,1.42031,
2014-03-15, 20:21:04,VALID,917.845,VALID,0,VALID,81.1208,VALID,0,VALID,21.9266,VALID,142,VALID,1.25937,
2014-03-15, 20:22:04,VALID,917.855,VALID,0,VALID,81.0903,VALID,0,VALID,21.9071,VALID,128,VALID,1.07656,
2014-03-15, 20:23:04,VALID,917.86,VALID,0,VALID,81.0903,VALID,0,VALID,21.8876,VALID,136,VALID,1.18359,
2014-03-15, 20:24:04,VALID,917.888,VALID,0,VALID,81.0598,VALID,0,VALID,21.8664,VALID,135,VALID,1.10234,
2014-03-15, 20:25:04,VALID,917.885,VALID,0,VALID,80.9454,VALID,0,VALID,21.8274,VALID,144,VALID,1.43008,
2014-03-15, 20:26:04,VALID,917.91,VALID,0,VALID,80.9607,VALID,0,VALID,21.8485,VALID,144,VALID,1.16133,
2014-03-15, 20:27:04,VALID,917.925,VALID,0,VALID,80.9302,VALID,0,VALID,21.8485,VALID,156,VALID,0.968359,
2014-03-15, 20:28:04,VALID,917.924,VALID,0,VALID,80.8997,VALID,0,VALID,21.8485,VALID,158,VALID,0.903125,
2014-03-15, 20:29:04,VALID,917.964,VALID,0,VALID,81.0217,VALID,0,VALID,21.8274,VALID,158,VALID,0.944531,
2014-03-15, 20:30:04,VALID,917.985,VALID,0,VALID,81.0369,VALID,0,VALID,21.8095,VALID,158,VALID,0.621094,
2014-03-15, 20:31:04,VALID,918.014,VALID,0,VALID,80.9759,VALID,0,VALID,21.7883,VALID,158,VALID,0.865234,
2014-03-15, 20:32:04,VALID,918.026,VALID,0,VALID,81.2656,VALID,0,VALID,21.7688,VALID,158,VALID,0.845703,
2014-03-15, 20:33:04,VALID,918.083,VALID,0,VALID,81.1894,VALID,0,VALID,21.7315,VALID,127,VALID,1.03633,
2014-03-15, 20:34:04,VALID,918.121,VALID,0,VALID,80.9378,VALID,0,VALID,21.6729,VALID,124,VALID,1.48594,
2014-03-15, 20:35:04,VALID,918.131,VALID,0,VALID,80.7243,VALID,0,VALID,21.6729,VALID,144,VALID,0.887109,
2014-03-15, 20:36:04,VALID,918.13,VALID,0,VALID,80.8006,VALID,0,VALID,21.712,VALID,149,VALID,1.03203,
2014-03-15, 20:37:04,VALID,918.146,VALID,0,VALID,80.8311,VALID,0,VALID,21.6729,VALID,149,VALID,0.951172,
2014-03-15, 20:38:04,VALID,918.173,VALID,0,VALID,80.732,VALID,0,VALID,21.6518,VALID,149,VALID,0.853516,
2014-03-15, 20:39:04,VALID,918.23,VALID,0,VALID,81.0903,VALID,0,VALID,21.6534,VALID,149,VALID,0.80625,
2014-03-15, 20:40:04,VALID,918.257,VALID,0,VALID,81.3495,VALID,0,VALID,21.6323,VALID,149,VALID,0.51875,
2014-03-15, 20:41:04,VALID,918.319,VALID,0,VALID,81.319,VALID,0,VALID,21.6534,VALID,155,VALID,1.01758,
2014-03-15, 20:42:04,VALID,918.341,VALID,0,VALID,81.3419,VALID,0,VALID,21.6534,VALID,155,VALID,0.793359,
2014-03-15, 20:43:04,VALID,918.359,VALID,0,VALID,81.2351,VALID,0,VALID,21.6128,VALID,155,VALID,0.594922,
2014-03-15, 20:44:04,VALID,918.44,VALID,0,VALID,81.4028,VALID,0,VALID,21.6339,VALID,155,VALID,0.805859,
2014-03-15, 20:45:04,VALID,918.429,VALID,0,VALID,81.2046,VALID,0,VALID,21.6339,VALID,159,VALID,1.02773,
2014-03-15, 20:46:04,VALID,918.416,VALID,0,VALID,80.9454,VALID,0,VALID,21.6729,VALID,162,VALID,0.277344,
2014-03-15, 20:47:04,VALID,918.427,VALID,0,VALID,80.6786,VALID,0,VALID,21.6924,VALID,161,VALID,0.658203,
2014-03-15, 20:48:04,VALID,918.476,VALID,0,VALID,80.6862,VALID,0,VALID,21.751,VALID,161,VALID,0.508203,
2014-03-15, 20:49:04,VALID,918.51,VALID,0,VALID,80.3737,VALID,0,VALID,21.7493,VALID,161,VALID,0.900781,
2014-03-15, 20:50:04,VALID,918.518,VALID,0,VALID,80.1297,VALID,0,VALID,21.7688,VALID,159,VALID,0.536719,
2014-03-15, 20:51:04,VALID,918.517,VALID,0,VALID,79.4512,VALID,0,VALID,21.8485,VALID,159,VALID,0.636719,
2014-03-15, 20:52:04,VALID,918.551,VALID,0,VALID,79.5503,VALID,0,VALID,21.8876,VALID,159,VALID,0.445703,
2014-03-15, 20:53:04,VALID,918.605,VALID,0,VALID,78.8033,VALID,0,VALID,21.8876,VALID,159,VALID,0.568359,
2014-03-15, 20:54:04,VALID,918.616,VALID,0,VALID,79.2454,VALID,0,VALID,21.8664,VALID,159,VALID,0.873047,
2014-03-15, 20:55:04,VALID,918.6,VALID,0,VALID,79.436,VALID,0,VALID,21.8681,VALID,159,VALID,0.650391,
2014-03-15, 20:56:04,VALID,918.606,VALID,0,VALID,80.5566,VALID,0,VALID,21.8095,VALID,123,VALID,0.928906,
2014-03-15, 20:57:04,VALID,918.628,VALID,0,VALID,80.9226,VALID,0,VALID,21.6323,VALID,106,VALID,1.25391,
2014-03-15, 20:58:04,VALID,918.632,VALID,0,VALID,81.2046,VALID,0,VALID,21.6128,VALID,114,VALID,1.24141,
2014-03-15, 20:59:04,VALID,918.598,VALID,0,VALID,80.0992,VALID,0,VALID,21.6924,VALID,141,VALID,1.11719,
2014-03-15, 21:00:04,VALID,918.583,VALID,0,VALID,80.206,VALID,0,VALID,21.7705,VALID,140,VALID,0.778125,
2014-03-15, 21:01:04,VALID,918.588,VALID,0,VALID,79.8553,VALID,0,VALID,21.7705,VALID,128,VALID,0.8875,
2014-03-15, 21:02:04,VALID,918.541,VALID,0,VALID,79.5427,VALID,0,VALID,21.79,VALID,138,VALID,1.1668,
2014-03-15, 21:03:04,VALID,918.549,VALID,0,VALID,79.3445,VALID,0,VALID,21.829,VALID,165,VALID,0.644922,
2014-03-15, 21:04:04,VALID,918.522,VALID,0,VALID,79.3979,VALID,0,VALID,21.8485,VALID,143,VALID,0.556641,
2014-03-15, 21:05:04,VALID,918.564,VALID,0,VALID,78.4068,VALID,0,VALID,21.8681,VALID,106,VALID,1.31758,
2014-03-15, 21:06:04,VALID,918.549,VALID,0,VALID,77.8961,VALID,0,VALID,22.0242,VALID,104,VALID,0.927344,
2014-03-15, 21:07:04,VALID,918.519,VALID,0,VALID,77.5454,VALID,0,VALID,22.0632,VALID,148,VALID,1.34687,